Showing default

SECOR 5 (EGRS 5), 1506

Orbit data source: Space-Track

SECOR 5 (EGRS 5), 1506 is an American payload satellite in LEO that was launched on Tue, 10 Aug 1965 UTC via an SCOUT B launch vehicle from the Wallops Island (WLPIS). Payload-class satellites include a variety of spacecraft equipped with specific instruments for various scientific and technological missions. These include communications satellites like Starlink; space stations such as the ISS; scientific satellites like the Hubble; Earth observation satellites from companies like Planet Labs, Umbra, and HawkEye 360; GPS; miniature CubeSats for education and research; and military/defense satellites.

Loading next visibility...
Identifier
1506, 1965-063A
Orbit
LEO
Country
Flag of USUS
Related business
Manufacturer
Cubic
Mission
Spacecraft
Bus & Motor
NRL 20", Unknown motor
Mass
18 kg wet, 18 kg dry
Launch date (UTC)
1965-08-10 (61 years ago)
Launch vehicle
SCOUT B
Launch site
Wallops Island (WLPIS)
Object type
Payload
Rocket body
Debris
Shape & HBR
Unknown
Radar Cross Section
Medium (>0.1 m² and <1 m²)

Expand to show TLE details & history
Last TLE update: 8 hours ago

TLE from 8 hours ago
0 SECOR 5 (EGRS 5)
1 01506U 65063A   26126.88736263 -.00000017  00000-0  10934-3 0  9991
2 01506  69.2328 310.6048 0788472 196.2622 281.0567 11.78687332613386
Epoch: 2026-05-06T21:17Z
TLE epoch observation values (Epoch: 2026-05-06T21:17:48.131Z)
Latitude
62.67833°
Longitude
-100.51681°
Altitude
1,714.271 km
Speed
7.057 km/s
True Right ascension
05h 34m 42s
True Declination
62° 33' 16"
Sunlit
Object was in daylight at epoch
Visualization orbit readout
Latitude
Unknown
Longitude
Unknown
Altitude
Unknown
Speed
Unknown
Apparent Right ascension
Unknown
Apparent Declination
Unknown
Sunlit
N/A
Visualization observer readout
Local Sidereal Time
13:44:31
Azimuth
Unknown
Elevation
Unknown
Doppler factor
Unknown
Orbital elements
Apogee altitude
2,418.957 km
Perigee altitude
1,133.092 km
Semi-major axis
8,154.162 km
Eccentricity
0.07885
Inclination
69.2328°
RAAN
310.6048°
Arg. of periapsis
196.2622°
True anomaly
272.05573°
Mean anomaly
281.0567°
Eccentric anomaly
276.56874°
Mean motion
2.94764 °/min
Orbital period
122.13 mins
BSTAR
0.00010934
Loading maneuver chart data...
Computing Atmospheric mass density...
Loading historical data...
Loading historical data...
Loading historical data...
Loading historical data...
Loading historical data...
Loading historical data...
Loading historical data...

Documentation

Showing up to 5 results
|